Simultaneous Nadir Overpasses (SNOs) Predictions

Prediction of SNOs between METOP-A and TERRA Satellite Orbit:

Table of predicted SNOs for the next 14.0 days since TLE Epoch: 10/21/2017
Index Date (METOP-A) Time (METOP-A) Lat,Lon (METOP-A) SZA (METOP-A ) Date (TERRA) Time (TERRA) Lat,Lon (TERRA) SZA (TERRA ) Distance(km) Time Diff (sec)
1 10/21/2017 13:47:04 81.37, 21.64 95.51 10/21/2017 13:47:23 81.37, 21.59 95.52 0.80 19
2 10/21/2017 14:37:44 -81.37,-170.89 84.46 10/21/2017 14:36:50 -81.37,-170.80 84.48 1.46 54
3 10/24/2017 09:21:23 81.37, 88.09 96.51 10/24/2017 09:21:38 81.37, 88.09 96.52 0.54 15
4 10/24/2017 10:12:03 -81.37,-104.40 83.47 10/24/2017 10:11:05 -81.37,-104.27 83.48 2.20 58
5 10/27/2017 04:55:42 81.37, 154.53 97.47 10/27/2017 04:55:54 81.37, 154.58 97.49 1.27 12
6 10/27/2017 05:46:21 -81.37, -37.94 82.50 10/27/2017 05:45:20 -81.38, -37.75 82.50 3.26 61
7 10/30/2017 00:30:01 81.36,-139.46 98.36 10/30/2017 00:30:11 81.36,-139.31 98.38 2.59 10
8 10/30/2017 01:20:40 -81.37, 28.50 81.56 10/30/2017 01:19:38 -81.36, 28.38 81.61 2.15 62
9 11/01/2017 20:04:19 81.37, -72.68 99.31 11/01/2017 20:04:29 81.36, -72.82 99.29 2.39 10




NCC Satellite Simultaneous Nadir Overpasses (SNOs) Prediction Service
